Wind_Speed
8 8 8 7 7 7 7 7 8 8 8 8 8 8 7 8 8 8 8 7 7 6 6 5 5 5 5 4 3 3 3 3 2 1 1 3 4 5 6 7 7 7 8 9 10 9 6 4 3 3 3 3 4 5 7 8 6 3 2 2 2 2 2 4 4 2 4 3 6 12 14 17 9 11 16 21 28 29 29 32 30 28 26 24 19 17 16 15
8 7 7 7 6 6 6 6 6 7 7 7 7 7 7 7 7 7 7 7 8 7 6 5 5 5 5 5 4 3 4 2 1 2 4 5 5 6 7 8 8 8 9 10 9 9 5 1 2 2 2 2 2 4 5 7 7 5 3 2 4 4 3 2 2 1 8 9 11 18 18 17 9 6 11 12 18 24 23 23 25 27 23 22 19 16 14 12
7 7 6 6 6 6 6 6 7 7 7 7 8 7 7 7 7 7 7 7 7 7 7 6 5 5 5 5 4 4 3 2 4 5 6 5 6 7 8 9 9 9 9 9 8 7 4 1 1 1 1 2 3 4 4 4 6 6 3 1 5 6 2 7 9 9 17 20 17 17 22 27 17 10 14 16 18 24 17 15 19 22 21 22 20 18 16 12
7 6 6 6 6 6 7 7 8 8 9 9 9 9 8 8 8 7 7 6 6 6 6 6 5 5 4 5 4 4 2 4 4 5 5 5 6 7 8 9 9 9 8 7 5 3 2 1 1 0 1 1 2 2 4 5 6 4 4 4 5 5 2 6 11 19 21 23 21 17 23 26 22 18 14 14 15 15 14 15 16 16 18 22 22 21 20 17
7 7 6 7 7 7 8 8 9 10 10 10 10 10 9 9 8 8 8 7 6 5 5 5 5 4 4 5 5 4 2 2 3 4 4 6 6 7 8 8 9 8 7 5 2 1 1 1 1 0 0 1 1 0 3 6 7 2 3 7 5 5 5 6 14 21 19 23 23 18 18 14 20 26 21 21 15 7 11 16 19 19 20 21 22 21 20 22
8 8 8 8 8 9 9 9 10 10 11 11 11 11 10 10 9 9 9 8 6 5 4 4 4 3 3 4 4 5 3 2 2 4 5 6 6 7 6 7 7 7 6 3 2 0 2 3 3 2 1 1 1 1 3 3 4 3 2 4 2 3 6 8 15 17 19 24 19 15 18 20 26 25 27 35 22 13 17 18 21 21 21 20 19 18 18 21
9 9 9 9 9 9 10 10 10 10 11 11 11 10 10 11 11 10 9 8 6 5 4 3 4 2 2 3 4 7 10 7 5 6 6 7 7 6 6 5 5 5 4 2 1 0 3 5 5 4 2 2 2 1 4 6 0 4 1 7 8 11 13 16 21 21 25 30 24 24 24 22 26 18 23 32 21 19 21 19 20 19 18 17 17 19 19 19
9 9 9 10 10 10 10 10 10 11 11 10 10 10 10 10 10 9 7 7 6 5 4 2 2 1 2 3 6 10 12 9 8 8 7 8 8 7 6 5 4 4 3 1 1 3 4 6 7 6 2 1 3 3 6 7 4 3 1 5 10 16 20 26 29 31 36 35 32 35 30 27 31 26 25 23 19 21 20 18 18 16 15 15 18 20 19 19
9 9 10 10 10 10 10 10 10 10 11 10 10 11 10 10 8 7 6 5 5 4 3 2 1 1 3 3 6 8 10 10 11 10 9 10 10 8 7 5 4 3 2 1 1 3 4 5 6 6 2 1 3 5 8 5 3 3 2 6 12 17 22 29 30 31 35 31 32 34 24 25 25 21 21 17 18 19 16 18 16 13 15 17 18 18 17 17
9 10 10 10 10 10 10 10 10 10 10 10 10 10 9 8 7 6 5 4 3 2 1 1 2 4 4 5 8 6 8 12 12 10 10 11 11 8 6 4 2 2 2 0 0 2 4 5 5 4 3 2 4 6 5 3 1 1 4 11 17 18 16 23 26 26 28 23 30 29 14 15 12 7 10 10 16 14 12 18 15 15 18 19 17 16 16 14
11 11 11 11 11 11 10 10 10 10 9 9 9 9 9 8 6 5 4 3 2 1 3 4 6 9 8 11 15 9 9 14 13 12 12 11 10 7 5 3 3 3 3 2 1 2 3 5 5 3 1 1 4 4 4 4 3 2 5 9 12 16 14 18 24 24 20 15 30 36 19 19 16 9 9 11 15 11 13 20 17 18 19 18 17 15 15 14
12 12 12 12 12 12 11 10 10 10 9 10 9 9 8 7 6 5 5 5 5 5 6 6 9 10 9 16 19 12 13 17 16 15 13 10 8 5 4 3 4 5 4 2 1 2 3 4 4 2 1 1 3 2 3 7 5 3 5 3 3 10 10 9 12 10 8 11 22 25 14 15 13 9 13 15 16 13 18 21 19 20 19 18 17 15 16 15
13 13 13 13 13 13 12 11 10 10 10 10 8 8 7 6 6 6 6 6 7 7 8 9 10 8 8 14 16 13 14 17 18 18 14 9 5 3 4 4 5 7 6 5 2 2 2 3 4 4 5 4 1 2 4 8 5 1 4 3 2 6 5 5 4 4 7 11 9 5 4 5 7 11 14 15 14 14 20 21 19 20 18 18 17 15 16 16
14 14 14 14 14 13 13 11 11 10 10 9 8 7 6 7 7 6 7 7 8 10 11 11 9 7 11 12 11 12 12 14 18 19 15 10 5 2 4 5 7 8 9 8 6 4 3 5 8 8 9 8 2 3 5 5 5 2 3 4 3 3 2 8 9 5 7 3 2 3 4 2 4 9 12 13 12 14 21 21 18 19 17 18 17 16 17 16
14 13 13 13 13 13 13 11 10 10 8 7 7 7 7 8 8 8 9 9 11 12 12 12 9 8 11 10 9 11 11 13 19 21 17 11 8 6 5 7 9 9 11 10 7 7 6 11 17 13 10 11 6 2 4 4 4 4 3 2 4 3 2 5 14 10 5 3 9 9 7 2 6 9 11 15 13 15 22 19 17 18 16 16 16 16 17 16
13 12 12 12 12 12 11 10 9 8 6 6 6 7 8 8 8 11 11 11 12 11 10 10 9 10 10 6 7 10 13 15 20 20 14 10 10 9 9 9 9 9 11 11 9 10 10 12 18 18 15 13 7 3 4 5 4 4 3 0 2 3 1 2 10 17 7 5 12 9 8 3 5 11 13 15 17 19 22 19 16 16 15 15 14 15 15 15
12 11 11 11 11 11 10 9 8 6 4 5 7 8 9 10 10 13 15 15 14 12 11 10 7 11 12 9 8 11 15 16 19 17 10 8 10 10 9 8 8 8 9 11 9 10 10 9 8 10 13 9 4 4 5 4 3 5 3 3 2 2 2 1 3 15 16 10 10 10 10 6 6 13 14 14 18 20 21 19 16 15 14 13 13 13 13 13
11 10 10 10 10 9 9 8 6 4 4 6 9 12 14 14 11 11 13 12 12 10 10 8 5 6 9 15 13 10 15 17 18 16 7 6 10 8 9 10 8 7 9 10 9 10 9 9 7 3 7 7 5 6 5 1 2 2 2 1 2 2 2 2 2 7 13 13 10 11 10 8 8 11 13 14 17 19 20 19 16 14 13 12 12 12 11 11
11 10 9 9 9 9 8 7 5 2 3 6 10 14 18 21 20 18 18 16 13 8 4 9 10 5 3 16 16 8 13 21 21 17 9 6 9 9 10 11 10 10 10 7 9 12 9 7 9 5 5 6 5 3 3 5 6 6 2 2 3 2 2 3 3 3 11 13 8 8 10 9 8 8 12 15 16 20 20 18 16 15 13 13 12 11 10 9
11 10 9 9 9 9 8 6 3 1 3 4 8 10 13 16 16 17 26 29 25 16 10 12 14 10 7 17 19 9 10 21 24 23 15 7 7 10 11 10 12 14 9 4 4 11 12 8 6 4 5 5 5 4 1 0 2 5 5 4 3 4 3 3 3 2 8 10 5 6 10 8 7 6 10 15 17 18 19 17 16 15 14 13 12 10 9 7
11 10 9 9 9 8 7 4 2 2 2 3 6 7 7 8 9 10 21 26 23 21 20 18 14 12 11 16 21 14 11 19 24 26 21 12 7 7 11 10 10 10 6 3 6 9 14 8 5 6 6 2 4 4 3 6 7 6 6 6 5 3 3 5 3 2 3 7 3 5 9 5 4 5 10 15 14 14 17 17 17 17 15 13 11 10 8 6
11 10 9 9 7 7 5 1 2 2 3 3 4 6 9 12 15 17 20 17 15 18 20 20 18 14 11 12 20 19 20 21 22 26 24 19 16 10 12 14 8 5 5 4 5 6 10 5 7 10 5 3 6 6 7 8 7 6 4 5 4 3 2 4 5 5 5 6 4 4 7 4 2 3 7 11 10 12 16 16 16 18 17 15 13 11 9 7
11 10 9 8 6 5 3 1 3 2 4 3 6 12 18 21 21 22 21 15 11 14 17 19 21 19 13 11 15 21 27 21 18 26 24 20 21 17 16 14 8 7 7 7 6 5 5 3 9 11 6 4 8 9 8 7 5 5 5 5 2 3 2 1 3 6 6 4 7 7 6 3 1 3 3 5 9 12 14 14 14 16 16 15 14 11 10 9
10 10 9 7 5 4 1 1 3 3 4 4 9 16 21 23 22 20 17 11 7 10 14 15 18 20 17 13 10 15 22 20 18 24 22 16 14 12 12 10 8 8 7 9 12 9 4 6 11 7 6 8 7 9 9 6 5 3 3 5 2 0 1 2 3 3 7 7 6 9 5 0 3 2 1 2 7 11 13 15 14 15 15 14 14 12 11 9
10 9 8 6 4 3 0 1 2 3 4 5 11 17 22 22 19 15 10 7 4 7 11 9 12 17 18 15 6 4 10 15 20 22 18 15 10 5 6 6 6 4 1 7 11 9 5 9 10 5 7 10 7 6 7 4 3 4 1 3 3 3 3 6 7 3 6 3 4 5 2 2 3 3 4 3 4 7 11 14 15 16 18 17 16 15 13 11
10 9 8 6 4 4 0 1 1 2 4 6 11 18 22 20 16 10 4 5 3 7 9 7 8 12 17 18 8 0 3 7 15 19 13 13 11 5 3 4 4 2 4 4 6 4 4 10 8 6 7 9 8 5 4 3 4 3 1 2 1 2 5 9 9 3 3 2 4 5 2 2 2 4 6 6 4 6 8 11 15 18 19 19 18 17 15 14
10 8 7 5 4 3 0 1 1 3 5 7 12 17 19 17 14 7 2 6 3 4 7 7 7 9 14 19 13 4 1 8 10 17 16 12 11 12 7 4 4 2 2 3 4 2 3 9 9 8 8 7 7 4 4 3 4 2 1 3 4 2 6 8 8 4 3 1 1 4 3 1 3 4 5 6 5 6 7 8 13 18 21 21 20 18 17 15
10 8 6 5 4 3 1 1 2 4 5 8 11 14 15 16 13 5 4 5 3 3 4 5 5 10 11 18 23 14 6 9 7 12 17 13 12 16 13 6 3 4 7 5 4 1 2 7 8 7 7 5 3 3 6 2 2 5 3 3 5 2 5 5 5 3 1 2 2 4 3 0 4 1 3 5 4 7 9 9 12 19 23 22 21 20 18 16
9 7 7 6 4 3 2 2 2 3 5 8 10 11 12 14 10 2 5 3 2 2 2 4 4 8 9 12 21 18 13 14 9 7 14 16 13 15 12 7 8 9 12 10 6 2 0 2 3 4 4 2 3 5 4 2 1 8 4 4 3 3 3 4 5 2 2 2 3 5 4 1 4 1 3 4 5 8 10 9 12 20 24 23 22 21 19 17
7 7 8 7 4 2 1 2 2 3 5 7 8 11 14 12 6 5 5 1 1 2 3 5 3 6 10 7 11 16 13 13 13 11 16 18 18 20 14 9 11 9 8 10 5 0 2 0 1 4 3 3 5 2 2 4 3 7 6 5 4 5 4 3 2 3 4 2 5 5 6 3 2 3 5 5 5 6 7 6 9 17 22 24 23 21 20 19
7 8 8 7 4 3 2 2 2 4 6 8 11 16 16 7 4 6 3 1 1 3 4 5 3 4 8 5 4 10 8 9 14 13 12 11 15 20 13 6 8 6 4 6 4 4 6 4 2 1 5 6 1 1 2 4 7 6 5 4 3 4 4 4 4 4 4 3 6 3 4 4 2 5 5 7 5 3 7 7 9 16 22 26 25 22 21 20
7 8 8 6 4 3 3 2 3 5 7 10 16 16 10 4 5 3 0 3 1 2 2 2 3 3 4 4 4 6 4 6 10 10 6 5 7 10 8 3 2 4 4 4 3 5 4 2 4 3 5 10 5 3 5 6 8 7 5 5 4 3 4 3 3 2 1 5 3 1 1 2 4 5 4 7 6 3 6 8 12 19 24 26 26 24 22 21
7 7 7 7 6 4 3 3 4 6 7 13 17 9 5 5 2 1 2 2 0 1 1 1 3 3 3 5 5 5 3 3 6 7 3 3 5 3 3 5 3 1 1 1 2 4 3 4 6 3 4 9 5 3 3 4 5 5 3 4 4 2 3 2 4 2 2 5 3 0 1 3 4 3 3 4 4 4 5 7 13 20 24 26 25 23 22 21
7 8 8 8 8 6 4 4 5 7 9 14 12 4 8 5 1 0 1 1 1 2 2 1 3 5 5 4 3 3 4 3 4 6 4 3 5 4 4 7 8 3 2 3 2 2 2 3 5 3 2 6 4 2 1 2 1 2 2 5 4 3 3 2 3 2 3 5 5 3 1 3 2 2 3 2 2 3 4 5 9 16 21 22 21 21 22 22
7 8 9 10 11 9 7 4 5 7 11 12 7 6 6 2 3 1 0 3 1 2 2 2 3 5 5 3 3 3 3 3 3 5 5 4 3 3 3 5 7 4 3 3 1 1 2 3 4 1 2 3 3 2 1 4 1 2 2 4 2 2 4 2 3 5 2 3 4 3 2 4 3 1 3 2 1 3 6 8 8 12 16 18 19 22 23 24
9 9 10 11 11 12 10 4 4 7 11 10 7 6 3 3 2 3 1 1 1 0 2 4 4 5 4 4 4 5 4 3 3 4 4 3 2 3 2 3 4 4 3 3 0 1 2 3 4 2 3 4 5 4 4 4 0 1 3 1 3 3 5 2 2 2 3 1 3 2 2 4 2 1 3 3 3 6 8 12 14 15 16 17 21 24 25 26
10 12 14 14 13 14 12 7 4 6 9 10 9 3 2 1 2 2 0 1 0 1 3 2 2 2 2 2 3 6 5 3 3 4 2 1 2 3 3 3 2 4 3 2 1 0 2 2 5 1 2 2 4 6 9 8 4 2 1 2 2 1 3 3 1 4 4 1 4 2 3 4 2 2 3 3 4 7 8 13 17 18 18 20 25 27 27 25
10 13 16 18 17 13 10 9 4 8 11 12 7 3 2 1 0 1 1 1 1 2 5 2 0 1 1 1 2 5 5 3 2 3 2 1 2 1 2 3 1 4 6 1 1 0 2 1 6 2 2 1 1 2 4 6 6 4 3 1 2 2 1 1 1 2 2 2 4 4 4 3 3 3 2 2 6 8 9 10 11 16 20 24 28 28 27 25
5 9 14 16 15 13 11 6 3 11 15 10 3 2 2 1 1 1 1 1 1 3 4 2 1 2 2 2 1 4 3 3 1 2 2 1 1 1 2 1 2 6 9 2 3 1 1 2 3 4 1 2 3 3 1 3 5 4 2 3 3 3 3 1 0 2 1 2 3 4 5 3 5 5 4 6 8 8 8 7 8 17 23 25 27 27 25 25
2 5 10 11 7 9 9 2 7 14 12 4 3 2 1 2 2 4 4 2 1 3 2 1 1 3 2 1 1 1 2 3 2 2 1 1 1 0 1 0 2 6 8 3 3 1 1 2 2 4 4 2 1 1 3 2 1 2 3 3 2 1 0 0 1 2 2 1 2 3 5 5 5 4 6 8 7 8 9 7 9 17 21 21 23 23 23 23
4 4 7 10 5 3 3 6 10 11 6 2 3 2 1 3 3 4 6 4 4 5 4 3 3 3 2 2 1 1 2 3 3 2 1 1 1 0 1 1 2 4 4 3 3 2 1 1 2 3 4 1 3 3 3 4 4 3 2 2 2 0 1 1 3 3 1 2 4 2 5 7 5 3 6 6 6 9 12 12 13 17 18 17 17 17 18 18
6 3 6 12 9 1 7 11 9 6 4 3 4 4 3 3 3 5 6 5 4 5 6 5 3 2 2 1 1 1 2 2 2 1 1 1 1 2 2 3 3 2 1 1 1 1 1 2 1 3 4 3 4 4 1 3 3 4 2 2 4 3 4 4 3 4 1 1 1 2 3 7 5 4 6 7 9 11 13 14 15 16 15 13 13 13 14 16
11 7 5 6 7 7 11 9 7 5 5 3 4 6 5 4 3 4 5 6 4 3 5 4 2 3 1 1 1 2 2 1 0 0 1 2 2 3 2 2 2 1 2 0 1 0 1 2 1 4 4 3 4 5 1 1 3 2 1 1 4 2 3 5 5 3 1 3 1 1 3 6 6 6 9 11 11 12 13 15 16 16 14 13 14 14 14 16
17 15 11 5 2 3 7 5 2 4 4 4 6 7 7 7 6 4 3 5 4 2 3 2 1 2 1 1 3 2 1 1 1 1 1 2 2 4 3 1 2 1 1 0 0 1 1 0 1 2 5 6 6 6 5 4 1 2 3 1 3 4 6 4 2 2 1 4 4 3 4 7 5 4 7 9 10 11 15 18 18 18 17 16 15 15 15 18
11 13 18 15 7 7 8 9 10 6 3 5 6 4 4 6 6 6 5 5 5 4 3 1 1 2 1 2 3 2 1 1 0 0 1 1 2 4 5 3 0 1 1 1 1 1 2 2 2 2 2 4 4 5 4 3 2 1 2 3 3 5 7 4 1 3 2 4 4 5 6 7 5 3 5 7 7 9 16 19 19 20 19 18 16 16 17 20
5 4 10 16 18 19 17 14 15 11 5 5 4 3 3 3 2 5 6 5 6 7 5 2 1 1 3 3 3 2 2 2 1 1 1 2 3 3 4 5 3 1 1 1 1 1 2 1 2 5 6 6 6 7 4 2 3 5 4 5 5 4 6 6 4 3 4 2 3 7 8 9 11 9 7 7 6 7 12 16 19 21 20 19 17 17 19 20
6 2 2 6 12 17 15 11 11 9 5 4 3 1 3 2 1 3 4 3 5 5 4 4 3 2 1 2 2 0 2 2 2 1 2 3 4 4 3 5 4 3 2 2 1 2 3 2 3 5 7 8 7 9 6 2 5 9 8 6 7 6 6 7 5 6 4 3 5 9 7 6 12 12 9 9 7 6 10 15 18 20 21 19 17 17 18 19
4 3 4 4 4 5 5 5 10 11 6 4 3 2 3 3 2 2 2 2 4 4 2 2 4 3 1 1 2 1 1 2 1 1 1 2 3 4 3 3 3 3 3 2 1 3 4 3 4 3 5 9 8 9 8 5 6 8 8 8 8 8 9 10 11 8 7 5 10 9 5 7 12 13 11 11 10 11 16 18 18 18 19 19 17 17 19 20
11 9 7 8 6 6 7 8 14 15 9 5 4 2 3 3 2 1 1 1 2 3 3 2 2 5 3 2 3 3 2 0 1 3 2 2 2 1 1 2 2 2 2 2 0 1 3 3 3 2 5 10 9 10 7 5 5 6 8 10 9 9 12 13 11 8 9 11 14 12 11 12 14 13 13 16 18 19 19 18 16 17 19 18 17 19 21 22
13 9 11 16 14 11 10 8 10 10 6 4 4 1 2 4 2 2 1 2 0 2 3 3 4 4 1 1 4 3 5 5 3 4 4 4 2 2 2 2 2 1 1 1 0 1 1 3 1 3 3 8 9 7 4 3 5 7 10 11 8 8 9 10 9 6 7 10 14 12 11 13 14 14 15 19 19 16 14 16 18 20 20 18 19 21 22 23
11 13 21 23 11 5 6 5 5 6 3 3 3 2 1 2 4 4 1 1 2 2 1 4 6 3 2 2 1 4 6 5 4 4 4 4 3 3 3 3 3 1 2 0 0 1 1 2 3 5 3 7 5 5 5 4 5 7 12 13 11 8 6 7 6 6 7 8 9 7 7 9 10 8 10 14 14 13 15 18 20 21 20 19 21 23 24 25
18 20 20 18 8 4 4 4 4 5 2 1 2 3 2 4 7 6 3 1 2 2 2 4 5 3 1 1 3 4 3 4 4 4 5 6 6 6 7 6 5 4 2 2 1 1 2 1 1 2 2 6 5 4 4 5 7 7 9 9 9 8 6 5 6 7 9 7 4 5 7 8 5 2 4 9 10 13 17 19 20 21 20 20 22 24 26 27
Wind_Direction
64 63 61 59 58 58 57 53 50 48 46 42 38 32 26 22 18 14 11 5 358 355 357 359 358 348 337 336 337 347 336 328 337 335 49 42 14 359 345 336 334 332 330 323 320 325 319 288 261 178 172 178 198 216 204 215 220 206 144 139 238 186 204 230 226 205 116 100 54 48 82 111 105 76 85 79 64 62 67 65 74 86 87 87 89 102 118 134
57 56 53 49 49 49 45 41 36 31 27 23 17 11 7 3 1 2 3 3 1 357 354 350 348 341 336 333 333 5 354 334 114 68 64 46 16 7 354 344 339 338 332 324 319 320 326 288 232 203 238 233 213 205 192 208 202 192 121 122 227 200 214 309 324 178 112 122 92 69 76 80 69 68 87 84 46 50 59 48 64 72 73 86 92 100 113 139
46 43 40 36 31 28 23 17 12 7 3 360 356 352 349 346 343 345 345 348 353 356 355 349 341 337 335 332 340 10 14 110 102 68 60 37 12 359 347 342 336 336 331 322 319 319 322 319 199 183 319 280 242 228 213 195 195 205 139 106 246 207 199 15 35 104 124 123 99 75 77 64 54 84 99 102 61 46 45 28 46 50 52 70 78 91 100 117
29 25 21 15 10 7 360 355 353 349 347 344 344 343 341 339 337 334 333 333 337 344 348 344 337 333 332 336 352 9 81 122 66 50 40 12 358 343 338 338 334 334 331 324 327 327 316 7 132 200 346 286 267 230 225 209 199 197 152 186 229 175 113 27 86 117 121 112 102 89 81 68 60 75 96 107 72 41 37 41 53 52 54 66 75 84 90 99
11 6 3 357 352 349 345 343 339 338 337 336 338 339 338 338 335 332 329 326 326 329 333 336 336 332 329 346 7 9 86 129 15 34 16 359 346 332 335 335 335 333 327 322 328 5 334 24 69 69 110 254 328 156 238 214 195 180 196 219 223 148 100 75 109 119 120 107 98 79 73 84 75 63 69 86 82 62 55 66 81 78 73 74 78 84 88 93
358 353 350 344 342 340 336 334 332 333 332 333 335 335 339 339 336 331 325 324 323 320 320 325 334 333 331 0 25 24 68 106 17 21 355 346 333 323 328 324 333 335 325 308 269 324 20 17 20 26 66 312 8 203 298 305 210 211 277 299 329 111 98 99 102 108 116 98 80 79 92 101 88 65 67 79 82 91 84 85 91 86 84 83 82 84 83 83
349 347 344 340 339 336 335 334 331 332 331 334 333 334 339 336 334 330 325 326 321 317 316 322 344 336 346 23 65 66 76 80 28 6 345 338 331 323 324 312 325 346 344 293 252 19 23 31 32 29 33 12 27 299 327 351 244 188 304 24 60 87 92 105 104 101 101 91 88 99 97 90 90 83 74 79 85 92 91 90 91 89 89 87 81 77 73 73
346 346 344 342 342 340 341 339 336 336 338 339 336 336 337 336 338 332 330 327 317 320 313 326 356 325 28 66 105 78 63 47 13 358 345 347 344 336 330 310 298 333 0 299 38 53 31 41 37 29 46 33 15 353 358 7 48 97 58 59 86 93 97 105 104 102 99 96 99 93 84 84 92 92 79 80 91 91 93 91 88 91 87 81 75 72 70 70
352 352 349 348 348 347 348 345 343 342 343 343 338 336 336 341 343 335 331 319 312 319 315 1 36 88 59 95 120 73 40 22 10 356 353 0 358 348 330 315 293 308 352 304 21 45 30 36 26 25 31 354 5 359 8 18 42 55 87 100 108 110 110 109 103 103 104 103 99 90 88 95 94 86 74 77 93 95 96 88 82 85 79 73 72 71 69 66
1 359 358 356 354 354 354 350 346 344 345 343 338 337 341 348 348 341 331 314 318 320 346 75 112 89 76 101 104 69 28 24 17 3 6 5 359 359 340 330 334 343 28 119 316 51 36 12 346 353 340 352 11 356 12 56 53 356 103 108 119 123 117 114 113 111 106 103 99 96 89 81 78 81 79 85 96 100 95 82 78 78 74 72 72 71 69 65
5 6 4 0 359 358 357 353 349 348 347 345 344 346 350 357 360 4 4 11 47 88 104 118 111 96 99 88 78 66 35 31 27 19 17 6 355 1 1 15 53 44 62 115 108 45 32 348 332 335 307 6 345 346 42 41 18 17 93 102 108 105 103 110 122 121 103 101 105 102 83 54 55 78 102 109 100 100 93 80 76 76 74 73 72 70 69 67
4 6 5 2 360 358 358 356 351 351 351 351 352 353 360 13 26 37 48 67 84 101 109 116 116 108 98 71 62 56 43 36 29 19 12 4 354 352 354 24 67 60 67 108 86 359 356 337 352 46 69 42 327 354 31 349 357 35 57 71 55 81 93 101 130 137 100 135 122 100 75 42 43 89 110 112 105 98 89 82 78 78 76 74 73 71 70 70
360 0 360 1 358 356 359 354 352 352 353 355 355 3 20 39 49 57 68 81 87 99 108 111 121 115 84 66 53 50 44 31 20 11 7 8 354 329 335 3 52 60 64 71 61 6 22 3 17 72 46 30 357 4 340 337 6 353 24 64 1 39 46 31 113 144 88 146 160 58 48 49 59 108 115 114 110 98 86 83 83 82 80 78 77 78 77 75
352 351 351 355 355 355 356 351 351 351 353 358 2 23 50 60 64 72 81 92 98 105 110 108 114 97 81 78 50 40 36 18 11 5 7 20 30 8 352 25 53 59 62 61 68 68 69 48 50 68 42 20 329 325 345 0 34 7 6 39 25 53 12 13 37 79 88 117 272 55 105 121 113 119 121 118 111 98 91 87 88 88 87 85 84 86 86 83
342 342 342 344 347 349 351 350 349 350 356 4 13 43 63 64 72 83 90 99 103 110 116 111 105 82 77 74 41 32 25 11 7 3 3 20 41 47 50 68 69 64 62 62 76 75 73 71 65 59 37 29 25 17 15 9 17 34 54 336 352 80 210 7 23 26 118 83 26 74 112 110 126 127 127 120 110 104 100 95 95 94 93 93 92 92 93 92
335 336 335 336 341 342 346 349 347 353 4 16 33 60 68 71 82 89 96 102 105 113 117 109 94 74 66 48 31 28 21 12 4 1 4 23 41 52 65 79 78 70 66 65 70 73 77 77 66 49 37 36 35 67 53 22 355 4 74 152 336 54 345 345 22 18 63 94 21 52 128 133 127 132 131 122 114 110 107 104 103 102 101 102 102 101 100 99
334 335 334 335 336 335 342 347 349 2 26 53 64 73 78 86 96 96 94 96 101 104 101 103 96 76 61 32 18 15 18 15 6 7 13 34 47 53 68 80 74 68 71 73 69 76 79 65 66 47 37 34 7 63 61 18 344 329 30 59 348 49 27 312 17 21 45 79 46 59 108 117 125 133 132 127 121 115 112 114 113 112 113 112 112 109 105 101
337 337 336 334 333 334 340 345 352 16 66 94 92 86 84 90 104 106 100 100 98 94 83 70 66 90 53 20 15 13 23 25 19 23 32 52 52 50 74 70 58 78 82 73 56 60 71 48 58 66 26 23 4 53 86 239 227 267 325 50 352 18 50 45 347 10 48 73 80 81 96 113 123 130 130 130 127 119 119 124 124 125 125 123 121 115 109 104
339 339 338 336 335 336 339 346 357 35 97 126 121 100 91 91 93 88 82 80 74 74 60 38 48 113 61 15 22 37 39 36 30 35 50 71 55 57 79 62 61 96 89 66 36 38 56 44 43 42 360 360 344 23 156 204 188 189 192 143 137 76 59 59 46 73 83 73 64 89 109 127 132 133 133 135 131 124 127 131 132 135 133 131 127 122 118 109
342 342 341 338 336 336 337 344 359 83 103 152 152 129 112 96 84 69 68 69 68 71 73 63 66 84 63 22 28 44 41 39 37 38 44 58 69 70 69 60 74 83 69 71 48 35 56 60 33 5 300 311 327 318 262 196 122 141 117 90 109 109 70 57 102 142 101 78 40 90 112 128 138 141 141 138 131 129 134 137 141 145 143 143 140 136 132 122
346 344 339 337 333 332 333 342 32 107 113 157 168 167 163 120 101 90 80 75 70 70 67 66 69 63 49 27 29 36 38 42 43 42 42 48 74 70 51 55 74 60 13 67 88 47 57 60 354 327 281 271 7 345 45 54 59 82 105 91 63 85 71 57 85 281 66 90 94 110 105 101 117 135 149 146 140 144 148 149 156 157 152 154 154 153 154 146
349 345 340 337 331 331 331 1 67 95 119 142 170 163 150 130 116 109 100 89 73 65 58 57 61 55 54 44 36 37 41 38 32 33 38 53 67 71 63 62 67 46 353 37 77 48 50 37 330 334 303 141 57 30 60 61 66 66 70 101 58 24 78 66 42 3 28 98 146 137 101 82 68 106 146 156 158 161 162 165 169 164 161 165 168 171 174 173
350 346 344 340 335 340 339 76 65 90 115 121 147 136 130 125 116 107 101 98 78 55 44 45 45 41 44 42 32 39 47 40 14 14 23 47 65 69 74 70 67 65 36 46 80 75 61 340 320 330 332 79 52 28 48 50 53 58 55 87 46 352 93 113 23 14 20 72 138 131 97 84 61 58 87 147 156 159 170 177 174 172 174 178 182 189 191 197
350 347 345 343 346 350 338 108 56 100 126 117 137 139 135 129 122 115 102 96 88 42 35 38 32 31 29 17 17 41 51 46 21 11 14 37 62 67 73 77 70 65 56 75 83 84 86 324 324 336 18 58 55 27 36 42 21 12 70 96 103 251 156 141 133 94 44 46 119 121 81 11 198 171 113 128 143 153 167 173 175 182 185 185 189 197 205 216
352 349 349 351 351 356 81 149 47 101 130 126 143 149 145 139 132 125 103 87 78 12 16 27 23 24 18 10 19 52 50 45 26 11 12 35 52 74 73 69 68 62 117 90 78 78 53 349 354 25 35 44 59 40 29 40 22 345 295 146 135 178 163 131 153 142 62 24 210 144 60 288 209 196 196 173 152 163 172 174 177 181 185 188 194 200 208 216
354 353 354 356 351 357 7 196 36 110 137 140 156 157 155 154 149 139 97 66 49 344 357 13 10 16 15 9 5 42 38 25 15 13 27 42 44 78 74 26 60 127 195 112 78 90 24 2 27 56 41 42 47 40 13 49 61 356 282 145 100 178 158 155 174 167 88 227 226 168 187 284 257 235 205 183 186 197 194 189 185 183 186 194 201 208 212 217
354 358 359 359 358 7 11 197 103 148 149 150 162 165 170 173 167 165 59 47 22 326 357 2 2 24 26 21 29 97 3 327 350 21 42 55 51 77 80 14 45 34 255 121 64 43 358 6 24 37 40 45 36 15 322 28 73 304 310 40 338 218 164 173 183 183 182 191 62 163 178 334 273 248 184 170 189 211 220 217 201 193 195 201 209 216 218 224
353 2 5 2 5 21 65 133 135 149 151 160 164 168 178 182 180 177 80 69 345 328 6 355 19 38 42 45 52 74 48 1 3 18 38 60 62 73 70 36 86 36 10 90 116 298 352 19 24 34 38 36 22 313 289 345 77 269 293 1 317 221 160 160 148 161 208 57 3 232 191 295 272 272 120 161 201 228 227 222 210 203 204 208 213 218 223 228
355 3 6 1 6 30 81 105 121 138 146 158 160 164 171 171 173 124 72 101 329 359 14 353 11 13 19 46 46 48 44 34 31 19 48 68 68 76 77 47 76 68 35 63 123 195 26 51 49 70 50 356 278 283 296 59 320 281 317 32 10 50 93 105 111 120 55 50 259 233 178 187 274 226 144 181 225 234 226 218 213 208 209 212 215 220 223 227
359 4 9 9 15 31 98 108 95 123 138 150 153 150 146 144 139 64 49 131 355 357 342 2 351 348 10 32 27 25 35 32 22 35 57 64 61 65 77 64 60 71 45 46 77 49 328 268 75 73 42 294 254 280 39 75 337 315 5 31 24 29 38 53 67 83 65 336 262 224 174 155 298 249 186 191 218 214 203 206 211 209 211 214 217 221 224 229
3 3 9 13 23 38 94 111 92 126 135 141 145 139 133 118 78 84 83 249 320 344 349 10 353 3 24 42 15 8 22 22 16 32 47 45 45 42 42 39 32 40 31 21 21 355 3 20 359 356 8 353 318 31 16 28 22 23 32 28 24 1 5 15 357 39 75 266 264 242 180 149 238 257 212 209 224 191 191 199 199 206 212 213 216 222 227 233
13 7 11 19 27 39 79 103 102 130 137 142 147 146 135 62 28 94 216 307 322 341 354 345 341 11 24 33 22 351 2 21 18 32 41 30 43 38 37 40 2 30 21 351 351 358 7 9 321 298 4 15 31 37 350 356 24 32 30 41 57 5 1 10 330 4 169 246 259 257 210 209 240 250 226 216 215 205 215 218 209 208 212 215 219 223 228 233
23 29 35 38 41 42 71 110 112 126 143 150 155 153 97 71 56 234 288 340 58 307 356 298 341 20 50 36 9 335 7 23 14 28 31 48 57 36 39 38 19 76 54 6 24 7 341 314 341 357 5 8 38 67 358 334 6 18 35 72 93 77 38 298 282 330 285 266 281 30 186 255 274 287 280 229 202 205 230 240 230 221 218 220 222 224 229 235
48 58 54 49 47 38 54 110 131 133 143 148 151 109 60 82 184 238 353 283 282 346 27 25 343 16 45 48 345 332 35 25 15 33 14 34 50 5 352 12 14 42 86 63 62 41 43 307 342 28 337 352 35 84 154 181 338 328 150 117 114 136 137 228 236 227 277 279 293 321 214 211 243 303 310 289 195 219 251 257 241 229 226 225 225 225 230 238
65 65 59 49 41 34 44 95 137 135 147 145 110 62 78 128 219 125 93 263 313 355 336 9 54 46 17 359 344 358 45 17 24 53 26 28 56 9 345 342 358 27 81 63 5 41 85 257 280 3 39 36 23 312 169 117 47 292 123 86 46 180 159 182 211 207 250 308 296 291 234 211 199 248 324 357 305 265 261 260 249 234 228 223 225 229 234 244
69 63 55 45 38 32 31 50 121 137 154 142 74 54 122 176 191 153 156 254 56 19 315 354 46 61 357 330 351 357 12 23 31 49 31 39 67 15 351 299 342 24 69 105 145 1 55 280 282 12 58 73 66 35 45 68 5 326 52 42 258 185 141 134 274 302 38 23 284 271 266 295 330 322 336 9 316 282 263 254 248 240 233 228 233 239 244 252
70 61 51 43 40 31 22 32 88 150 139 104 78 83 185 172 154 179 295 26 186 108 88 37 20 59 4 344 341 334 348 20 37 46 40 35 27 4 343 311 343 31 36 117 174 166 126 292 293 219 153 151 105 62 39 42 60 79 53 258 251 96 96 106 327 342 24 345 278 285 260 287 330 307 320 349 290 276 259 249 247 245 240 237 243 248 252 257
65 57 48 38 33 28 25 33 61 153 116 80 76 107 123 92 110 234 318 33 178 81 78 98 187 97 113 76 335 318 347 15 6 34 59 30 11 26 1 321 298 21 7 37 127 55 121 332 300 248 169 236 48 33 0 13 41 95 163 228 69 82 327 18 52 327 350 297 285 303 295 269 221 234 263 239 238 248 253 249 245 244 241 240 247 253 257 260
56 55 44 29 25 31 33 30 122 129 100 74 78 114 99 102 44 34 26 35 113 84 76 123 138 61 92 120 222 306 3 46 23 41 78 65 14 59 65 318 274 346 355 52 135 301 114 103 290 279 281 321 8 27 284 316 1 49 71 3 36 130 182 211 148 185 205 271 281 314 321 282 231 214 190 208 220 224 242 248 236 241 244 246 251 256 259 260
74 67 41 18 20 33 25 44 114 94 82 84 144 123 100 126 70 42 47 40 52 73 85 157 96 77 77 100 155 312 31 60 70 65 65 63 48 310 44 166 265 330 349 42 108 342 33 113 253 295 339 329 317 334 191 197 320 16 26 7 356 1 141 201 266 175 138 187 235 299 303 271 247 204 182 207 220 215 225 232 237 247 253 255 256 258 261 262
84 77 28 19 18 345 30 83 71 63 71 99 100 89 88 116 88 38 47 65 67 66 92 115 105 115 124 89 56 349 46 41 39 71 85 2 75 251 300 318 271 313 350 29 53 12 16 112 223 287 333 311 234 259 228 197 180 153 146 169 170 176 81 69 296 295 81 155 186 217 282 271 255 193 186 206 214 220 230 233 241 252 257 257 258 259 260 261
80 76 11 30 42 70 108 80 35 30 85 75 72 81 89 109 75 31 40 59 66 59 70 84 84 92 113 116 61 65 87 60 12 66 146 226 153 185 269 330 314 285 61 39 333 309 155 100 95 277 275 237 255 302 286 177 144 125 155 171 139 129 118 127 225 264 324 291 192 134 261 272 261 204 204 219 222 232 240 237 240 251 256 255 259 261 258 260
69 62 9 41 68 89 99 78 13 29 72 76 92 78 71 91 62 34 38 37 37 49 55 52 49 70 85 219 107 97 94 98 212 160 179 224 213 203 222 354 344 202 113 38 277 235 121 71 24 294 297 303 310 326 358 86 83 99 249 155 132 147 137 151 182 189 234 270 255 96 254 272 271 226 220 233 238 243 245 240 241 247 253 256 256 256 257 262
74 60 42 48 139 101 95 107 93 76 80 94 89 64 62 70 51 43 43 22 22 66 77 55 29 66 91 92 89 111 144 105 173 213 169 190 209 207 198 68 43 143 131 172 207 156 238 11 60 350 335 341 344 344 335 333 11 207 243 189 141 115 103 119 148 110 262 240 169 150 245 261 268 234 229 243 248 248 246 245 244 246 250 253 250 251 258 263
78 59 48 54 92 108 99 121 129 121 121 101 80 40 57 62 44 52 60 47 50 66 90 107 54 58 63 66 70 57 46 79 221 259 130 211 233 219 211 217 229 112 164 215 204 153 195 186 113 96 316 306 310 307 297 286 269 241 230 204 177 131 130 150 122 106 237 240 159 166 237 263 272 253 244 251 245 246 251 249 245 245 248 248 245 253 263 264
78 65 44 51 73 85 88 104 113 112 131 115 79 29 57 69 42 51 54 55 52 53 70 81 47 44 38 51 66 23 10 31 51 103 140 237 260 247 218 218 236 276 195 194 233 123 122 192 179 165 192 219 237 252 243 194 255 268 253 224 206 167 141 126 113 170 203 191 189 223 241 272 282 275 265 259 243 245 258 254 247 243 242 241 247 261 267 265
73 59 36 54 69 78 79 84 94 103 132 127 102 66 62 44 344 26 39 65 58 53 69 54 36 60 61 68 94 302 310 1 24 94 159 224 260 283 246 222 236 252 206 167 207 120 91 302 248 182 214 232 232 253 261 243 252 256 254 235 208 185 152 143 185 214 168 123 258 248 226 248 274 279 280 276 265 259 264 261 254 246 240 243 256 267 269 267
89 91 96 111 101 74 67 78 90 92 92 96 101 106 72 43 36 49 30 65 64 50 68 42 15 13 269 194 126 146 292 357 337 241 193 227 278 328 312 236 220 219 197 157 188 126 114 263 243 179 253 263 256 264 264 248 250 248 242 238 216 189 178 192 218 211 162 192 254 255 228 242 268 279 282 280 278 274 274 273 264 252 246 250 262 270 271 271
117 112 83 91 108 108 109 111 102 90 69 59 72 74 96 93 105 182 294 6 27 12 48 120 290 319 301 228 133 144 211 195 269 261 215 192 249 324 328 268 213 200 195 158 166 106 125 252 245 174 285 283 273 273 260 225 248 262 248 242 225 201 197 211 231 214 189 226 253 263 269 267 269 274 275 280 281 277 275 271 258 249 250 255 265 271 272 273
129 131 116 105 95 93 104 105 99 89 53 37 66 62 115 118 151 204 338 45 110 313 34 132 220 269 313 135 134 182 218 185 181 238 194 166 232 222 201 223 190 193 347 119 93 61 121 273 282 100 320 289 280 291 286 220 245 272 270 262 245 227 220 227 240 224 205 239 254 263 273 272 269 267 268 275 278 271 261 253 249 251 254 259 268 272 275 279
138 142 133 118 89 40 83 86 82 93 47 16 89 148 144 152 179 163 79 13 170 198 158 158 192 216 44 61 169 233 237 196 191 235 202 190 233 231 230 232 184 178 352 85 198 28 108 288 355 57 345 280 283 330 330 314 307 286 276 271 256 239 225 221 229 207 193 225 253 269 274 268 266 259 257 265 264 251 245 248 251 255 258 263 271 277 283 287
134 136 134 120 92 9 58 65 40 74 82 324 135 154 162 182 182 155 102 315 186 149 157 165 170 168 59 311 253 249 246 221 233 257 240 242 259 261 262 253 209 198 182 139 184 311 119 128 347 38 306 272 290 340 336 339 335 293 263 245 229 227 227 235 251 233 207 204 229 246 247 259 273 250 255 269 259 248 252 255 258 261 265 272 278 285 290 290
Height
1543 1542 1542 1542 1542 1541 1541 1540 1540 1539 1539 1538 1538 1537 1536 1536 1535 1535 1534 1534 1533 1533 1533 1532 1532 1531 1530 1530 1530 1530 1530 1530 1530 1530 1530 1530 1530 1529 1529 1529 1529 1529 1528 1528 1527 1527 1527 1527 1527 1527 1526 1526 1527 1528 1528 1529 1529 1530 1533 1535 1538 1540 1538 1533 1531 1531 1531 1538 1541 1542 1541 1540 1547 1551 1551 1553 1554 1557 1559 1561 1563 1562 1563 1566 1566 1565 1564 1564
1543 1543 1542 1542 1542 1541 1541 1540 1540 1539 1539 1538 1538 1537 1537 1536 1535 1535 1534 1534 1533 1533 1532 1532 1531 1531 1530 1530 1530 1530 1529 1529 1529 1529 1529 1530 1530 1529 1529 1529 1529 1528 1528 1527 1527 1527 1526 1526 1527 1526 1526 1526 1527 1527 1528 1528 1528 1530 1533 1536 1537 1537 1534 1531 1530 1529 1531 1539 1541 1543 1544 1543 1548 1552 1551 1556 1564 1563 1561 1566 1566 1565 1567 1567 1566 1565 1564 1564
1543 1543 1543 1542 1542 1541 1541 1540 1540 1539 1539 1538 1537 1537 1536 1536 1535 1534 1534 1533 1533 1532 1532 1531 1531 1530 1530 1530 1529 1529 1529 1529 1529 1529 1530 1530 1530 1529 1529 1529 1528 1528 1527 1527 1527 1526 1526 1526 1526 1526 1526 1526 1527 1527 1528 1528 1528 1528 1531 1535 1534 1532 1532 1531 1531 1530 1532 1536 1539 1544 1544 1544 1550 1552 1553 1559 1566 1566 1568 1572 1570 1570 1571 1568 1567 1566 1565 1565
1543 1543 1543 1542 1542 1541 1541 1540 1539 1539 1538 1537 1537 1536 1536 1535 1534 1534 1533 1533 1532 1532 1531 1531 1530 1530 1529 1529 1529 1529 1529 1529 1529 1530 1530 1530 1530 1529 1529 1528 1527 1527 1527 1527 1526 1526 1526 1526 1526 1526 1526 1526 1527 1527 1528 1528 1528 1528 1530 1532 1530 1530 1532 1532 1532 1531 1534 1536 1538 1545 1544 1548 1554 1554 1556 1558 1563 1572 1577 1576 1575 1575 1574 1572 1570 1568 1567 1566
1544 1543 1542 1542 1541 1541 1540 1539 1539 1538 1537 1537 1536 1535 1535 1534 1534 1533 1532 1532 1532 1531 1531 1530 1530 1529 1529 1529 1529 1529 1528 1530 1531 1530 1530 1530 1530 1529 1528 1528 1527 1527 1527 1526 1526 1526 1526 1525 1525 1525 1526 1526 1527 1527 1527 1527 1527 1528 1528 1529 1528 1529 1532 1534 1534 1533 1536 1536 1538 1544 1546 1553 1556 1558 1562 1559 1566 1580 1581 1579 1578 1577 1575 1574 1572 1570 1569 1567
1544 1543 1542 1542 1541 1540 1540 1539 1538 1537 1537 1536 1535 1535 1534 1533 1533 1532 1531 1531 1530 1530 1530 1530 1529 1529 1529 1528 1528 1528 1528 1530 1531 1530 1530 1530 1529 1529 1528 1528 1527 1527 1526 1526 1526 1526 1525 1525 1525 1525 1526 1526 1527 1527 1526 1527 1528 1528 1529 1528 1529 1529 1532 1535 1535 1536 1536 1535 1540 1545 1551 1556 1556 1565 1570 1565 1574 1583 1582 1581 1579 1577 1577 1575 1573 1572 1571 1569
1543 1543 1542 1541 1540 1540 1539 1538 1537 1537 1536 1535 1534 1534 1533 1532 1531 1531 1530 1529 1529 1529 1529 1529 1529 1528 1528 1528 1528 1528 1528 1530 1531 1531 1531 1530 1529 1528 1528 1527 1527 1527 1526 1526 1525 1525 1525 1525 1525 1525 1526 1526 1527 1527 1527 1527 1527 1529 1530 1530 1531 1531 1534 1536 1536 1538 1537 1538 1545 1548 1553 1557 1557 1568 1574 1572 1581 1583 1582 1583 1579 1579 1578 1576 1575 1573 1573 1573
1543 1542 1542 1541 1540 1539 1538 1537 1537 1536 1535 1534 1534 1533 1532 1531 1530 1530 1529 1528 1528 1528 1528 1528 1528 1528 1528 1528 1528 1528 1529 1531 1531 1531 1530 1529 1528 1527 1527 1527 1527 1527 1526 1526 1525 1525 1525 1525 1525 1525 1527 1527 1528 1528 1527 1527 1527 1529 1531 1532 1533 1534 1537 1537 1537 1538 1538 1544 1548 1549 1556 1562 1562 1568 1576 1580 1584 1584 1583 1583 1581 1580 1578 1577 1576 1576 1576 1576
1543 1542 1541 1540 1539 1538 1538 1537 1536 1535 1534 1534 1533 1532 1531 1530 1530 1529 1528 1528 1527 1527 1528 1527 1528 1528 1528 1528 1528 1529 1531 1532 1531 1530 1529 1528 1528 1527 1527 1526 1526 1526 1526 1526 1525 1525 1525 1526 1526 1526 1527 1527 1528 1527 1527 1527 1529 1531 1531 1532 1534 1536 1539 1537 1539 1541 1541 1546 1547 1550 1563 1567 1565 1568 1578 1585 1585 1585 1584 1582 1582 1581 1579 1579 1579 1579 1579 1578
1543 1542 1541 1540 1539 1538 1537 1536 1535 1534 1534 1533 1532 1531 1531 1530 1529 1528 1527 1527 1527 1527 1527 1527 1528 1528 1528 1528 1528 1530 1533 1532 1531 1530 1529 1528 1527 1527 1526 1525 1525 1526 1525 1526 1525 1525 1526 1526 1526 1526 1527 1527 1527 1528 1528 1528 1530 1531 1531 1532 1534 1537 1539 1537 1540 1542 1543 1548 1545 1551 1567 1570 1566 1569 1582 1589 1586 1585 1584 1583 1583 1581 1581 1581 1581 1581 1581 1580
1542 1541 1540 1540 1538 1538 1537 1536 1535 1534 1533 1533 1532 1531 1530 1529 1528 1527 1527 1527 1527 1527 1527 1527 1528 1528 1529 1528 1528 1532 1534 1532 1531 1530 1529 1528 1527 1526 1526 1525 1525 1525 1525 1525 1525 1526 1526 1526 1526 1526 1527 1527 1528 1528 1528 1528 1529 1530 1530 1532 1536 1538 1540 1540 1541 1541 1543 1550 1548 1548 1562 1570 1568 1574 1585 1589 1587 1585 1583 1584 1584 1582 1583 1583 1583 1583 1582 1582
1542 1541 1540 1539 1538 1537 1536 1535 1534 1534 1533 1532 1531 1530 1530 1529 1528 1527 1527 1527 1527 1527 1527 1528 1528 1529 1529 1528 1530 1533 1533 1532 1531 1530 1529 1528 1526 1526 1526 1525 1525 1525 1525 1525 1526 1526 1525 1526 1525 1525 1526 1527 1528 1528 1528 1529 1529 1529 1529 1531 1535 1537 1541 1544 1543 1543 1543 1548 1551 1544 1553 1573 1579 1581 1588 1588 1586 1585 1583 1585 1585 1584 1585 1585 1584 1584 1583 1584
1542 1541 1540 1539 1538 1537 1536 1535 1534 1533 1533 1532 1531 1530 1529 1529 1528 1528 1527 1527 1527 1527 1528 1528 1529 1529 1528 1529 1533 1534 1533 1532 1531 1530 1529 1527 1526 1525 1525 1525 1525 1525 1525 1525 1525 1526 1526 1525 1526 1526 1526 1527 1527 1528 1528 1528 1527 1529 1530 1531 1534 1536 1541 1545 1543 1544 1544 1547 1551 1543 1554 1583 1590 1587 1589 1588 1586 1584 1584 1587 1586 1586 1587 1586 1586 1585 1585 1585
1542 1540 1539 1538 1538 1537 1536 1535 1533 1533 1532 1531 1531 1530 1529 1529 1528 1528 1528 1527 1527 1528 1528 1529 1530 1530 1529 1531 1534 1534 1533 1533 1531 1529 1527 1526 1526 1525 1525 1525 1525 1525 1525 1525 1526 1526 1526 1526 1526 1526 1527 1528 1527 1528 1529 1529 1529 1531 1532 1535 1539 1540 1543 1547 1544 1545 1546 1550 1551 1545 1564 1590 1591 1589 1590 1588 1587 1584 1586 1588 1588 1588 1587 1587 1587 1586 1586 1586
1541 1540 1539 1538 1537 1536 1535 1534 1533 1533 1532 1531 1530 1530 1530 1529 1529 1528 1528 1528 1528 1529 1529 1529 1530 1530 1530 1532 1534 1534 1534 1533 1531 1529 1527 1526 1526 1525 1525 1525 1525 1526 1525 1526 1526 1526 1527 1527 1527 1527 1528 1527 1526 1529 1531 1532 1534 1536 1536 1539 1544 1542 1543 1546 1546 1546 1546 1551 1550 1547 1571 1593 1589 1590 1591 1588 1587 1584 1586 1589 1588 1589 1588 1588 1588 1587 1587 1587
1540 1539 1538 1537 1536 1535 1535 1534 1533 1532 1532 1531 1530 1530 1530 1529 1529 1529 1529 1529 1529 1530 1530 1530 1530 1530 1531 1534 1535 1534 1534 1532 1531 1529 1528 1527 1526 1526 1526 1526 1526 1526 1526 1527 1527 1527 1528 1527 1527 1529 1530 1529 1531 1532 1532 1535 1539 1541 1541 1542 1545 1544 1543 1546 1548 1549 1545 1549 1551 1550 1570 1590 1589 1590 1590 1588 1588 1585 1587 1589 1589 1589 1589 1589 1588 1588 1588 1588
1540 1539 1538 1537 1536 1535 1534 1533 1533 1532 1531 1531 1530 1530 1530 1530 1530 1530 1530 1529 1530 1531 1530 1531 1531 1530 1532 1535 1535 1535 1534 1533 1532 1530 1528 1527 1527 1527 1527 1527 1527 1527 1527 1527 1528 1528 1528 1528 1530 1533 1534 1534 1537 1534 1533 1540 1544 1545 1545 1545 1548 1548 1547 1547 1549 1553 1550 1550 1559 1561 1571 1585 1588 1589 1590 1589 1588 1586 1587 1589 1590 1590 1589 1589 1589 1589 1589 1588
1539 1538 1537 1536 1535 1534 1533 1533 1532 1532 1532 1531 1531 1531 1530 1530 1531 1531 1531 1531 1531 1530 1530 1532 1531 1532 1536 1537 1536 1536 1536 1534 1532 1530 1528 1528 1528 1527 1528 1527 1527 1527 1527 1528 1529 1528 1529 1530 1532 1535 1538 1540 1541 1539 1539 1546 1547 1546 1547 1547 1550 1551 1551 1552 1553 1558 1557 1558 1566 1571 1577 1585 1588 1589 1590 1590 1588 1586 1588 1589 1589 1590 1589 1590 1589 1589 1589 1588
1538 1537 1536 1535 1534 1533 1533 1532 1532 1532 1531 1531 1532 1531 1531 1531 1531 1532 1532 1532 1532 1533 1535 1536 1534 1538 1542 1540 1538 1538 1537 1535 1533 1530 1529 1529 1528 1528 1528 1528 1528 1527 1528 1530 1531 1531 1531 1534 1537 1541 1546 1547 1548 1547 1546 1546 1545 1545 1548 1548 1550 1551 1553 1556 1559 1561 1560 1565 1573 1575 1580 1586 1588 1589 1589 1589 1588 1586 1588 1589 1589 1589 1589 1590 1589 1589 1589 1588
1537 1536 1535 1534 1533 1533 1532 1532 1531 1531 1531 1531 1531 1531 1531 1531 1532 1535 1534 1533 1536 1539 1541 1541 1539 1541 1542 1541 1539 1538 1537 1535 1533 1531 1529 1529 1529 1529 1528 1529 1529 1528 1531 1533 1535 1535 1534 1540 1549 1553 1554 1552 1551 1551 1548 1547 1547 1547 1549 1550 1552 1554 1556 1558 1562 1563 1559 1567 1580 1580 1581 1586 1587 1588 1589 1588 1588 1587 1588 1589 1589 1589 1589 1589 1589 1588 1588 1588
1536 1535 1534 1534 1533 1532 1531 1531 1531 1531 1531 1531 1531 1531 1531 1531 1532 1536 1536 1537 1542 1543 1543 1543 1542 1542 1542 1542 1540 1538 1537 1535 1533 1532 1531 1530 1529 1529 1530 1531 1531 1533 1537 1536 1537 1537 1537 1546 1556 1556 1554 1553 1552 1552 1550 1548 1548 1549 1550 1552 1554 1555 1559 1561 1563 1564 1559 1566 1582 1583 1583 1588 1588 1588 1588 1588 1588 1587 1588 1588 1588 1588 1588 1588 1588 1588 1588 1588
1535 1534 1534 1533 1532 1531 1531 1531 1530 1530 1530 1530 1530 1530 1531 1531 1532 1533 1534 1539 1544 1544 1544 1544 1543 1543 1543 1543 1541 1540 1537 1534 1534 1533 1533 1532 1530 1531 1534 1534 1536 1540 1540 1537 1539 1542 1545 1553 1557 1555 1555 1553 1553 1553 1551 1550 1550 1551 1551 1552 1554 1556 1560 1563 1565 1567 1562 1567 1581 1585 1585 1589 1589 1588 1588 1588 1588 1587 1587 1586 1586 1586 1587 1587 1587 1587 1587 1587
1535 1534 1533 1532 1532 1531 1531 1530 1530 1530 1530 1530 1530 1530 1531 1532 1533 1533 1533 1537 1543 1545 1545 1545 1544 1544 1543 1543 1543 1541 1537 1538 1539 1537 1537 1536 1534 1535 1537 1538 1541 1543 1544 1543 1544 1549 1554 1558 1557 1556 1555 1551 1551 1554 1552 1551 1552 1553 1553 1554 1557 1559 1558 1559 1566 1571 1566 1567 1577 1584 1588 1591 1590 1589 1590 1588 1587 1588 1587 1586 1586 1585 1585 1585 1585 1585 1585 1585
1535 1533 1533 1532 1531 1531 1530 1530 1530 1530 1530 1530 1530 1530 1531 1532 1532 1533 1533 1536 1543 1546 1546 1546 1546 1546 1545 1545 1544 1542 1541 1543 1544 1541 1540 1539 1538 1539 1540 1542 1544 1547 1551 1550 1549 1554 1559 1560 1558 1556 1554 1552 1552 1554 1554 1553 1553 1555 1556 1555 1558 1559 1557 1560 1567 1571 1571 1575 1577 1580 1585 1590 1590 1589 1590 1589 1588 1587 1586 1586 1586 1585 1585 1584 1584 1584 1584 1584
1534 1533 1532 1531 1531 1530 1530 1530 1530 1530 1530 1530 1530 1531 1532 1532 1532 1533 1532 1537 1545 1548 1547 1547 1547 1547 1547 1546 1545 1545 1544 1544 1546 1545 1543 1541 1541 1541 1542 1543 1546 1551 1555 1553 1551 1556 1561 1560 1558 1556 1555 1555 1554 1555 1558 1557 1554 1554 1555 1555 1557 1558 1558 1564 1568 1567 1572 1577 1575 1573 1571 1576 1588 1590 1588 1589 1588 1587 1586 1585 1585 1584 1584 1583 1583 1583 1583 1583
1534 1533 1532 1531 1531 1530 1530 1530 1530 1530 1529 1529 1530 1531 1532 1532 1532 1533 1533 1540 1550 1551 1549 1549 1549 1550 1549 1547 1545 1544 1545 1546 1548 1548 1545 1543 1543 1542 1544 1545 1547 1552 1554 1552 1552 1558 1562 1561 1559 1558 1557 1556 1556 1557 1560 1560 1557 1555 1555 1556 1557 1558 1558 1563 1564 1562 1564 1565 1566 1570 1563 1566 1583 1588 1585 1587 1587 1586 1586 1584 1583 1582 1582 1581 1581 1581 1581 1581
1533 1532 1531 1530 1530 1529 1529 1529 1529 1529 1529 1529 1530 1531 1532 1532 1533 1533 1535 1545 1555 1555 1552 1551 1552 1553 1552 1551 1547 1546 1551 1551 1549 1549 1546 1545 1545 1543 1545 1549 1549 1552 1552 1552 1555 1561 1563 1562 1560 1560 1559 1558 1560 1560 1560 1562 1560 1554 1555 1556 1557 1558 1557 1558 1559 1558 1559 1560 1564 1570 1567 1565 1571 1577 1582 1585 1586 1586 1584 1583 1581 1580 1580 1579 1579 1579 1579 1579
1532 1532 1531 1530 1530 1529 1529 1529 1529 1529 1528 1529 1530 1530 1532 1532 1534 1535 1537 1550 1560 1557 1556 1556 1554 1555 1555 1554 1550 1550 1556 1553 1550 1552 1549 1547 1548 1545 1547 1553 1554 1555 1553 1552 1559 1566 1565 1563 1563 1562 1562 1561 1562 1564 1562 1561 1559 1554 1555 1557 1555 1556 1556 1556 1558 1558 1559 1561 1562 1567 1570 1566 1563 1573 1584 1584 1585 1585 1581 1579 1578 1577 1578 1577 1577 1577 1577 1578
1532 1531 1530 1530 1529 1529 1529 1529 1529 1528 1529 1529 1529 1531 1532 1533 1536 1537 1541 1555 1561 1559 1559 1558 1556 1557 1557 1555 1553 1554 1556 1553 1554 1556 1552 1550 1551 1549 1552 1556 1556 1556 1556 1555 1560 1566 1564 1564 1565 1563 1565 1565 1563 1564 1562 1561 1560 1556 1555 1556 1555 1557 1557 1556 1557 1558 1560 1560 1558 1561 1568 1565 1561 1574 1586 1585 1584 1580 1574 1575 1574 1574 1575 1574 1575 1575 1574 1576
1532 1531 1530 1529 1529 1528 1529 1529 1529 1529 1529 1529 1530 1531 1532 1534 1538 1541 1549 1560 1562 1560 1561 1559 1559 1560 1558 1557 1556 1557 1557 1556 1557 1556 1553 1554 1554 1553 1555 1557 1557 1558 1560 1561 1562 1566 1565 1564 1565 1564 1566 1565 1563 1563 1562 1562 1561 1556 1555 1554 1551 1555 1557 1556 1559 1560 1560 1559 1555 1556 1562 1563 1560 1567 1579 1579 1574 1569 1568 1571 1572 1572 1573 1572 1572 1573 1572 1573
1531 1531 1530 1529 1529 1529 1528 1528 1529 1529 1529 1529 1530 1531 1532 1537 1541 1547 1556 1563 1562 1562 1562 1561 1563 1563 1561 1562 1561 1561 1561 1560 1561 1559 1558 1560 1559 1558 1559 1561 1561 1559 1561 1565 1564 1566 1566 1564 1565 1566 1565 1565 1562 1561 1561 1562 1561 1557 1558 1554 1549 1554 1557 1555 1559 1560 1559 1557 1555 1556 1561 1564 1559 1557 1565 1568 1564 1565 1566 1567 1569 1569 1569 1570 1570 1570 1570 1571
1531 1531 1530 1529 1529 1528 1528 1528 1528 1528 1529 1529 1530 1531 1532 1537 1547 1557 1563 1563 1563 1565 1565 1565 1565 1564 1564 1565 1565 1566 1565 1565 1566 1565 1567 1569 1569 1570 1572 1574 1573 1564 1563 1569 1568 1566 1567 1567 1568 1566 1565 1565 1562 1561 1560 1560 1560 1559 1561 1560 1556 1561 1564 1559 1560 1566 1564 1559 1558 1560 1561 1562 1557 1552 1558 1563 1562 1565 1566 1565 1566 1566 1566 1567 1568 1568 1568 1569
1532 1531 1530 1529 1528 1528 1528 1528 1528 1528 1529 1529 1530 1532 1533 1539 1554 1568 1569 1565 1565 1568 1568 1567 1567 1567 1566 1566 1568 1569 1568 1569 1570 1569 1571 1573 1574 1577 1578 1579 1580 1571 1568 1573 1572 1568 1566 1567 1569 1566 1566 1566 1565 1565 1563 1562 1563 1563 1565 1566 1565 1571 1572 1567 1571 1577 1571 1559 1560 1565 1565 1559 1553 1552 1561 1563 1562 1565 1566 1565 1566 1565 1565 1565 1565 1567 1567 1567
1532 1531 1530 1530 1528 1528 1527 1527 1528 1528 1529 1529 1531 1532 1535 1547 1564 1571 1568 1568 1569 1569 1568 1569 1568 1567 1568 1569 1571 1571 1570 1571 1573 1572 1573 1573 1575 1579 1579 1578 1579 1577 1575 1574 1576 1577 1570 1566 1568 1568 1568 1568 1567 1568 1568 1567 1568 1568 1569 1569 1570 1575 1576 1571 1572 1574 1570 1566 1565 1564 1561 1555 1549 1554 1565 1565 1563 1566 1565 1565 1565 1564 1565 1565 1565 1566 1565 1565
1532 1531 1531 1529 1529 1528 1527 1528 1528 1528 1529 1530 1532 1536 1543 1558 1569 1569 1568 1570 1571 1569 1569 1570 1569 1568 1570 1572 1574 1573 1571 1571 1574 1575 1576 1578 1581 1583 1584 1582 1581 1582 1579 1574 1577 1582 1576 1569 1570 1570 1569 1570 1569 1569 1569 1568 1567 1569 1571 1569 1571 1576 1578 1576 1575 1575 1576 1577 1572 1561 1556 1558 1558 1561 1567 1565 1564 1566 1565 1564 1565 1563 1564 1564 1564 1564 1563 1562
1533 1532 1531 1530 1530 1529 1528 1528 1528 1528 1530 1528 1533 1547 1559 1567 1569 1569 1570 1571 1571 1571 1570 1569 1569 1570 1572 1573 1574 1574 1573 1572 1574 1576 1579 1583 1586 1586 1587 1586 1584 1585 1581 1578 1581 1582 1576 1570 1570 1571 1570 1571 1570 1569 1569 1568 1566 1568 1570 1569 1573 1577 1576 1576 1576 1579 1582 1579 1571 1562 1556 1559 1561 1561 1565 1567 1565 1565 1564 1563 1563 1562 1563 1563 1562 1560 1560 1560
1533 1532 1531 1531 1530 1529 1529 1529 1528 1529 1530 1528 1538 1559 1571 1572 1571 1572 1572 1571 1572 1573 1570 1569 1572 1574 1574 1575 1576 1576 1574 1573 1575 1576 1580 1584 1585 1586 1588 1587 1585 1585 1584 1583 1584 1584 1582 1574 1570 1572 1571 1570 1570 1569 1569 1569 1568 1568 1569 1570 1573 1574 1576 1578 1576 1576 1580 1579 1571 1564 1561 1560 1558 1556 1562 1568 1566 1563 1562 1561 1560 1561 1561 1560 1559 1557 1557 1557
1534 1532 1532 1531 1531 1531 1531 1529 1530 1530 1528 1535 1552 1567 1571 1572 1572 1572 1572 1571 1572 1572 1570 1571 1574 1577 1577 1577 1578 1580 1576 1573 1576 1579 1582 1583 1584 1586 1589 1587 1585 1585 1585 1584 1583 1585 1586 1576 1569 1571 1571 1569 1571 1569 1569 1570 1569 1569 1570 1572 1572 1571 1572 1577 1576 1574 1579 1583 1575 1568 1569 1566 1558 1554 1558 1562 1561 1559 1558 1558 1558 1558 1557 1556 1555 1554 1554 1554
1534 1533 1533 1534 1533 1533 1532 1531 1532 1530 1529 1544 1562 1568 1569 1572 1572 1572 1572 1572 1572 1571 1571 1574 1576 1577 1579 1579 1580 1581 1579 1577 1581 1583 1582 1583 1584 1586 1588 1587 1586 1584 1584 1584 1583 1584 1586 1579 1571 1570 1571 1571 1570 1570 1571 1572 1572 1570 1571 1573 1573 1574 1576 1577 1578 1578 1579 1582 1579 1572 1567 1559 1553 1554 1554 1554 1556 1555 1554 1555 1555 1553 1552 1552 1551 1551 1551 1551
1534 1534 1535 1537 1535 1535 1535 1533 1533 1532 1538 1554 1566 1567 1570 1572 1572 1572 1572 1572 1572 1572 1572 1575 1576 1576 1579 1582 1582 1582 1582 1582 1584 1584 1584 1586 1586 1586 1588 1588 1586 1585 1583 1583 1584 1584 1585 1583 1575 1571 1572 1572 1572 1574 1575 1575 1575 1573 1572 1574 1574 1576 1580 1579 1579 1581 1579 1577 1579 1578 1567 1553 1550 1553 1552 1551 1552 1552 1551 1552 1550 1549 1548 1548 1548 1548 1548 1548
1534 1535 1537 1537 1536 1536 1535 1535 1539 1544 1552 1562 1565 1568 1571 1571 1571 1573 1573 1572 1573 1572 1573 1575 1576 1577 1579 1581 1582 1582 1583 1584 1585 1586 1586 1587 1586 1585 1587 1587 1586 1586 1583 1582 1584 1584 1584 1584 1581 1575 1571 1570 1573 1577 1578 1576 1576 1576 1574 1575 1575 1576 1579 1579 1578 1581 1582 1578 1577 1579 1570 1551 1546 1550 1549 1549 1549 1548 1549 1548 1547 1547 1546 1545 1546 1545 1545 1545
1535 1537 1539 1537 1537 1536 1535 1541 1550 1554 1558 1564 1566 1568 1571 1571 1572 1573 1572 1573 1573 1573 1574 1575 1577 1580 1581 1581 1582 1583 1583 1585 1587 1587 1586 1587 1587 1586 1586 1586 1586 1585 1584 1583 1585 1586 1585 1586 1584 1577 1572 1574 1576 1577 1577 1576 1576 1577 1577 1578 1580 1580 1580 1579 1577 1577 1581 1582 1580 1585 1577 1553 1544 1548 1547 1546 1547 1545 1546 1545 1544 1544 1543 1543 1543 1542 1543 1542
1537 1539 1540 1538 1539 1538 1537 1548 1559 1560 1563 1568 1569 1569 1571 1572 1573 1574 1573 1574 1574 1574 1575 1577 1578 1580 1580 1581 1582 1583 1584 1585 1586 1587 1586 1587 1587 1586 1586 1586 1585 1585 1585 1584 1584 1585 1585 1585 1583 1576 1573 1576 1577 1577 1577 1577 1577 1577 1577 1579 1580 1580 1578 1579 1580 1580 1581 1578 1575 1582 1577 1551 1541 1546 1545 1544 1545 1544 1543 1543 1542 1542 1541 1541 1541 1540 1540 1540
1539 1541 1540 1539 1540 1539 1540 1550 1560 1564 1567 1569 1569 1571 1572 1573 1574 1575 1575 1575 1575 1576 1577 1579 1580 1579 1580 1581 1581 1583 1584 1583 1584 1587 1587 1587 1586 1585 1585 1585 1584 1585 1584 1583 1584 1584 1582 1582 1582 1578 1575 1573 1573 1575 1575 1574 1576 1575 1575 1578 1579 1580 1582 1582 1585 1588 1582 1573 1571 1576 1569 1548 1540 1545 1544 1543 1544 1542 1541 1541 1540 1539 1539 1539 1538 1538 1538 1538
1540 1541 1542 1541 1540 1540 1545 1551 1556 1562 1568 1568 1570 1573 1573 1574 1577 1576 1577 1577 1577 1577 1578 1579 1580 1580 1581 1582 1582 1585 1585 1582 1582 1586 1587 1587 1585 1584 1584 1584 1584 1584 1583 1583 1584 1583 1582 1582 1581 1579 1578 1575 1572 1572 1570 1570 1574 1575 1575 1578 1577 1579 1580 1578 1582 1586 1578 1573 1574 1571 1557 1543 1539 1543 1543 1542 1543 1541 1539 1539 1538 1537 1537 1536 1537 1536 1535 1535
1540 1543 1546 1546 1544 1545 1551 1556 1556 1560 1565 1567 1570 1575 1576 1577 1578 1578 1577 1578 1578 1578 1578 1580 1580 1580 1581 1582 1582 1584 1585 1584 1584 1584 1585 1586 1584 1583 1584 1583 1583 1583 1583 1584 1583 1584 1584 1583 1581 1578 1576 1574 1570 1568 1568 1571 1573 1571 1571 1574 1575 1578 1579 1577 1580 1580 1572 1572 1571 1560 1550 1544 1539 1539 1540 1539 1540 1539 1537 1536 1535 1535 1534 1534 1534 1533 1533 1532
1542 1546 1550 1551 1551 1553 1557 1560 1560 1561 1564 1566 1570 1576 1578 1578 1579 1578 1578 1578 1579 1579 1580 1581 1581 1581 1581 1582 1583 1583 1584 1585 1585 1583 1585 1586 1584 1583 1583 1582 1583 1583 1583 1583 1583 1584 1583 1579 1579 1579 1574 1571 1570 1568 1569 1572 1571 1567 1566 1568 1570 1575 1578 1576 1573 1569 1568 1571 1562 1549 1548 1549 1540 1535 1535 1535 1535 1535 1534 1533 1532 1531 1532 1531 1531 1531 1530 1528
1544 1549 1552 1551 1554 1559 1561 1562 1562 1563 1565 1567 1571 1576 1579 1579 1579 1579 1579 1579 1579 1580 1580 1581 1582 1583 1583 1583 1582 1582 1583 1583 1583 1584 1586 1586 1585 1583 1581 1582 1583 1582 1582 1584 1582 1584 1583 1577 1579 1581 1574 1570 1572 1570 1569 1571 1570 1567 1565 1563 1565 1571 1574 1569 1563 1563 1566 1563 1550 1542 1547 1547 1538 1533 1533 1532 1532 1532 1530 1529 1529 1529 1529 1529 1528 1528 1526 1525
1545 1549 1552 1553 1555 1560 1563 1563 1564 1564 1566 1568 1572 1577 1579 1579 1580 1581 1582 1580 1579 1581 1580 1579 1582 1584 1584 1584 1582 1582 1582 1579 1579 1582 1584 1585 1585 1584 1581 1581 1581 1582 1583 1583 1582 1584 1582 1577 1579 1583 1576 1570 1568 1567 1568 1569 1566 1563 1561 1559 1560 1564 1566 1562 1558 1560 1562 1557 1548 1545 1548 1545 1535 1531 1530 1529 1529 1529 1527 1527 1527 1526 1526 1526 1525 1525 1523 1523
1544 1546 1550 1553 1557 1562 1563 1564 1565 1565 1567 1570 1573 1577 1579 1580 1580 1582 1583 1581 1579 1581 1580 1579 1582 1584 1583 1584 1582 1580 1580 1579 1577 1580 1582 1583 1583 1584 1582 1579 1579 1582 1582 1582 1584 1584 1580 1577 1581 1584 1578 1569 1563 1562 1564 1566 1565 1561 1557 1556 1557 1559 1561 1561 1558 1558 1559 1556 1549 1548 1550 1544 1532 1527 1528 1527 1526 1526 1525 1524 1524 1523 1523 1523 1522 1521 1520 1519
1544 1546 1547 1549 1557 1565 1565 1565 1566 1566 1568 1572 1574 1577 1579 1580 1580 1581 1582 1582 1580 1580 1581 1580 1582 1583 1583 1584 1582 1579 1580 1580 1580 1580 1581 1581 1581 1581 1581 1579 1579 1581 1580 1581 1583 1582 1580 1580 1581 1582 1578 1566 1560 1562 1562 1563 1564 1561 1555 1551 1552 1554 1555 1553 1552 1551 1551 1548 1545 1548 1548 1536 1525 1524 1525 1524 1524 1523 1522 1521 1521 1520 1520 1520 1519 1518 1517 1516
1544 1547 1548 1548 1557 1566 1566 1566 1568 1566 1569 1574 1575 1577 1578 1578 1580 1580 1579 1581 1581 1580 1581 1581 1581 1583 1582 1581 1581 1580 1580 1580 1580 1580 1580 1580 1580 1580 1579 1579 1579 1579 1579 1581 1583 1583 1583 1580 1578 1581 1576 1563 1561 1567 1566 1565 1563 1553 1542 1538 1539 1543 1546 1545 1544 1544 1542 1540 1540 1539 1533 1523 1520 1524 1524 1522 1522 1521 1519 1518 1518 1517 1517 1517 1516 1514 1513 1512